EW3230 Weather Reports


time (UTC)temp
C
wind
direction
speed
KPH
gust
KPH
rain 1hr
cm
rain 24hr
cm
rain mn
cm
humidity
%
barometer
mb
20260904215230 25 88 0.0 0.0 0.00 0.00 0.00 75 1008.1
20260904214231 26 87 0.0 0.0 0.00 0.00 0.00 74 1008.1
20260904213231 26 87 0.0 1.6 0.00 0.00 0.00 74 1008.0
20260904212230 26 80 0.0 1.6 0.00 0.00 0.00 73 1008.0
20260904211230 27 110 0.0 3.2 0.00 0.00 0.00 72 1008.0
20260904210735 27 74 0.0 1.6 0.00 0.00 0.00 71 1008.1
20260904205230 27 46 0.0 4.8 0.00 0.00 0.00 70 1008.0
20260904204232 28 11 0.0 3.2 0.00 0.00 0.00 67 1008.1
20260904203232 28 156 0.0 1.6 0.00 0.00 0.00 68 1008.0
20260904202232 27 90 0.0 4.8 0.00 0.00 0.00 71 1008.0
20260904201734 27 110 0.0 1.6 0.00 0.00 0.00 72 1008.0
20260904200231 27 103 0.0 3.2 0.00 0.00 0.00 73 1008.0
20260904195231 27 41 0.0 1.6 0.00 0.00 0.00 71 1008.0
20260904194232 26 79 0.0 1.6 0.00 0.00 0.00 70 1008.2
20260904193232 26 75 0.0 4.8 0.00 0.00 0.00 70 1008.1
20260904192232 27 119 1.6 6.4 0.00 0.00 0.00 69 1008.1
20260904191233 27 70 1.6 12.9 0.00 0.00 0.00 66 1008.2
20260904190233 27 79 0.0 3.2 0.00 0.00 0.00 70 1008.1
20260904185230 27 43 1.6 9.7 0.00 0.00 0.00 70 1008.1
20260904184231 27 77 1.6 6.4 0.00 0.00 0.00 66 1008.1
20260904183239 28 356 0.0 3.2 0.00 0.00 0.00 62 1008.2
20260904183233 28 294 1.6 6.4 0.00 0.00 0.00 63 1008.1
20260904182341 27 61 0.0 6.4 0.00 0.00 0.00 65 1008.2
20260904180228 27 253 0.0 6.4 0.00 0.00 0.00 63 1008.4
20260904175226 27 44 0.0 4.8 0.00 0.00 0.00 66 1008.4
20260904174227 27 260 0.0 4.8 0.00 0.00 0.00 65 1008.4
20260904173727 27 293 1.6 6.4 0.00 0.00 0.00 65 1008.6
20260904172226 27 99 0.0 8.0 0.00 0.00 0.00 64 1008.5
20260904171224 27 273 1.6 8.0 0.00 0.00 0.00 67 1008.5
20260904170727 27 89 0.0 9.7 0.00 0.00 0.00 68 1008.5
20260904165221 27 235 0.0 4.8 0.00 0.00 0.00 69 1008.7
20260904164218 27 239 1.6 9.7 0.00 0.00 0.00 68 1008.8
20260904163218 26 343 1.6 9.7 0.00 0.00 0.00 71 1008.9
20260904162221 26 221 1.6 6.4 0.00 0.00 0.00 71 1009.1
20260904161218 26 72 1.6 9.7 0.00 0.00 0.00 72 1009.0
20260904160231 26 237 1.6 8.0 0.00 0.00 0.00 72 1009.2
20260904155218 25 52 1.6 4.8 0.00 0.00 0.00 73 1009.3
20260904154218 25 302 0.0 6.4 0.00 0.00 0.00 74 1009.2
20260904153219 25 232 1.6 4.8 0.00 0.00 0.00 74 1009.2
20260904152219 25 327 1.6 11.3 0.00 0.00 0.00 74 1009.3
20260904151219 24 79 1.6 9.7 0.00 0.00 0.00 74 1009.5
20260904150220 24 216 1.6 8.0 0.00 0.00 0.00 74 1009.6
20260904145217 24 217 1.6 11.3 0.00 0.00 0.00 73 1009.6
20260904144217 23 79 1.6 11.3 0.00 0.00 0.00 71 1009.6
20260904143218 23 91 1.6 9.7 0.00 0.00 0.00 69 1009.6
20260904142212 23 75 3.2 9.7 0.00 0.00 0.00 70 1009.7
20260904141214 23 83 1.6 9.7 0.00 0.00 0.00 65 1009.8
20260904140215 22 105 1.6 8.0 0.00 0.00 0.00 61 1009.9
20260904135214 22 285 1.6 4.8 0.00 0.00 0.00 54 1010.0
20260904134218 21 75 1.6 8.0 0.00 0.00 0.00 53 1009.8
20260904134212 21 52 1.6 8.0 0.00 0.00 0.00 53 1009.8
20260904132212 21 78 0.0 4.8 0.00 0.00 0.00 54 1009.8
20260904131213 21 324 0.0 1.6 0.00 0.00 0.00 54 1009.8
20260904130716 21 232 0.0 1.6 0.00 0.03 0.00 55 1009.8
20260904125215 21 231 0.0 1.6 0.00 0.03 0.00 55 1009.9
20260904124713 20 298 0.0 3.2 0.00 0.08 0.00 55 1009.9
20260904123712 20 22 0.0 0.0 0.00 0.10 0.00 56 1009.9
20260904122209 20 23 0.0 0.0 0.00 0.10 0.00 56 1009.9
20260904121209 20 23 0.0 0.0 0.00 0.10 0.00 56 1010.1
20260904120208 19 23 0.0 0.0 0.00 0.13 0.00 57 1010.1
20260904115215 18 22 0.0 0.0 0.00 0.25 0.00 57 1010.2
20260904115209 18 23 0.0 0.0 0.00 0.15 0.00 57 1010.2
20260904113208 18 22 0.0 0.0 0.00 0.25 0.00 57 1010.1
20260904112208 18 22 0.0 0.0 0.00 0.25 0.00 57 1010.0
20260904111204 18 22 0.0 0.0 0.00 0.25 0.00 57 1010.0
20260904110205 18 22 0.0 0.0 0.00 0.25 0.00 57 1010.0
20260904105203 18 22 0.0 0.0 0.00 0.25 0.00 57 1009.9
20260904104203 18 22 0.0 0.0 0.00 0.25 0.00 57 1009.9
20260904103204 18 22 0.0 0.0 0.00 0.25 0.00 57 1009.9
20260904102704 18 22 0.0 0.0 0.00 0.25 0.00 58 1009.8
20260904101704 17 23 0.0 0.0 0.00 0.30 0.00 58 1009.8
20260904100204 17 23 0.0 0.0 0.00 0.53 0.00 58 1009.7
20260904095202 17 23 0.0 0.0 0.00 0.58 0.00 58 1009.6
20260904094156 17 22 0.0 0.0 0.00 0.66 0.00 58 1009.6
20260904093157 17 22 0.0 0.0 0.00 0.66 0.00 58 1009.6
20260904092157 17 22 0.0 0.0 0.00 0.69 0.00 58 1009.5
20260904091158 17 22 0.0 0.0 0.00 0.69 0.00 58 1009.5
20260904090157 17 22 0.0 0.0 0.00 0.71 0.00 57 1009.6
20260904085158 17 22 0.0 1.6 0.00 0.71 0.00 57 1009.7
20260904084156 17 23 0.0 0.0 0.00 0.71 0.00 57 1009.7
20260904083156 17 22 0.0 0.0 0.00 0.71 0.00 57 1009.7
20260904082156 17 23 0.0 0.0 0.00 0.71 0.00 57 1009.7
20260904081652 17 23 0.0 0.0 0.00 0.74 0.00 57 1009.7
20260904080152 17 23 0.0 0.0 0.00 0.74 0.00 57 1009.6
20260904075151 18 23 0.0 0.0 0.00 0.74 0.00 57 1009.8
20260904074150 18 23 0.0 0.0 0.00 0.74 0.00 57 1009.8
20260904073152 18 23 0.0 0.0 0.00 0.74 0.00 57 1010.0
20260904072153 18 23 0.0 0.0 0.00 0.74 0.00 57 1010.1
20260904071152 18 23 0.0 0.0 0.00 0.74 0.00 57 1010.2
20260904070152 18 23 0.0 0.0 0.00 0.74 0.00 57 1010.3
20260904065149 18 23 0.0 0.0 0.00 0.74 0.00 57 1010.5
20260904064144 18 23 0.0 0.0 0.00 0.74 0.00 57 1010.5
20260904063143 18 23 0.0 0.0 0.00 0.74 0.00 57 1010.5
20260904062143 18 22 0.0 0.0 0.00 0.74 0.00 57 1010.5
20260904061156 18 22 0.0 0.0 0.00 0.74 0.00 56 1010.6
20260904060145 18 23 0.0 0.0 0.00 0.74 0.00 56 1010.4
20260904055143 18 23 0.0 0.0 0.00 0.74 0.00 56 1010.6
20260904054145 18 23 0.0 0.0 0.00 0.74 0.00 56 1010.7
20260904053143 18 23 0.0 0.0 0.00 0.74 0.00 56 1010.8
20260904052144 19 23 0.0 0.0 0.00 0.74 0.00 56 1011.0
20260904051137 19 23 0.0 0.0 0.00 0.74 0.00 56 1011.0
20260904050149 19 23 0.0 0.0 0.00 0.74 0.00 56 1011.3
20260904045639 19 22 0.0 0.0 0.00 0.74 0.00 56 1011.4
20260904044139 19 22 0.0 0.0 0.00 0.74 0.00 56 1011.4
20260904043137 19 23 0.0 0.0 0.00 0.74 0.00 56 1011.6
20260904042637 19 23 0.0 0.0 0.00 0.74 0.00 56 1011.6
20260904041138 19 23 0.0 0.0 0.00 0.74 0.00 56 1011.6
20260904040138 19 20 0.0 0.0 0.00 0.74 0.00 56 1011.7
20260904035635 20 22 0.0 0.0 0.00 0.74 0.74 56 1011.8
20260904034128 20 20 0.0 0.0 0.00 0.74 0.74 56 1011.7
20260904033128 20 20 0.0 0.0 0.00 0.74 0.74 56 1011.9
20260904032130 20 36 0.0 0.0 0.00 0.74 0.74 56 1011.7
20260904031130 20 35 0.0 0.0 0.00 0.74 0.74 55 1011.5
20260904030129 20 36 0.0 0.0 0.00 0.74 0.74 55 1011.6
20260904025630 20 35 0.0 0.0 0.00 0.74 0.74 55 1011.7
20260904024129 20 35 0.0 0.0 0.00 0.74 0.74 55 1011.9
20260904023630 20 35 0.0 0.0 0.00 0.74 0.74 55 1011.9
20260904022631 20 36 0.0 0.0 0.00 0.74 0.74 55 1012.1
20260904021127 20 35 0.0 0.0 0.00 0.74 0.74 55 1011.9
20260904020127 21 35 0.0 0.0 0.00 0.74 0.74 55 1012.1
20260904015128 21 35 0.0 0.0 0.00 0.74 0.74 55 1012.2
20260904014629 21 36 0.0 0.0 0.00 0.74 0.74 55 1012.5
20260904013130 21 35 0.0 0.0 0.00 0.74 0.74 55 1012.6
20260904012128 21 35 0.0 0.0 0.00 0.74 0.74 55 1012.6
20260904011126 21 35 0.0 0.0 0.00 0.74 0.74 55 1012.6
20260904010124 21 35 0.0 0.0 0.00 0.74 0.74 55 1012.4
20260904005126 21 36 0.0 0.0 0.00 0.74 0.74 55 1012.2
20260904004125 21 35 0.0 0.0 0.00 0.74 0.74 56 1012.2
20260904003125 21 35 0.0 0.0 0.00 0.74 0.74 56 1012.0
20260904002126 21 35 0.0 0.0 0.00 0.74 0.74 56 1011.9
20260904001126 21 36 0.0 0.0 0.00 0.74 0.74 56 1011.7
20260904000627 22 35 0.0 0.0 0.00 0.74 0.74 57 1011.7
20260903235626 22 36 0.0 0.0 0.00 0.74 0.74 57 1011.6
20260903234125 22 35 0.0 1.6 0.00 0.74 0.74 57 1011.5
20260903233126 22 35 0.0 0.0 0.00 0.74 0.74 58 1011.6
20260903232118 22 36 0.0 0.0 0.00 0.74 0.74 59 1011.5
20260903231120 22 35 0.0 0.0 0.00 0.74 0.74 60 1011.6
20260903230120 23 36 0.0 0.0 0.00 0.74 0.74 61 1011.5
20260903225118 23 35 0.0 0.0 0.00 0.74 0.74 62 1011.7
20260903224119 23 35 0.0 0.0 0.00 0.74 0.74 62 1011.7
20260903223120 23 36 0.0 0.0 0.00 0.74 0.74 62 1011.9
20260903222118 23 35 0.0 3.2 0.00 0.74 0.74 62 1011.8
20260903221621 23 63 0.0 1.6 0.00 0.74 0.74 62 1011.9
20260903221235 23 60 0.0 1.6 0.00 0.74 0.74 64 1011.8